Content
SEND FEEDBACK

Daily
Averages
Monthly
Summary
United States of America

RAPID CITY, SOUTH DAKOTA


Home > North America > United States > South Dakota
Elevation: 3162 feet     Latitude: 44 03N     Longitude: 103 04W

WEATHER
 
SELECT A DAY
Number of Records: 200,148;   Date Range: 1/1/95 - 7/7/14
 
SHARE

PRINT THIS DATA

[ ← Previous Day ]
WEATHER ALMANAC - FEBRUARY 24, 2013
[ Next Day → ]
[ °C ]   °F
Weather ElementAverageHighLow
Temperature31 °F34 °F (1:52 pm)21 °F (10:52 pm)
Dewpoint25.2 °F30.9 °F (1:52 am)15.1 °F (10:52 pm)
Humidity79.6 %93 % (3:15 am)61 % (4:52 pm)
Barometer30.00 in30.19 in (10:52 pm)29.81 in (1:17 am)
Wind Speed18.2 mph28.8 mph (11:52 am)
Wind Gust38 mph (11:52 am)
Weather ElementAverage
Visibility8.6 mi
Wind DirectionNNW (322.5 °)

Weather ElementTotal
Precipitation0.04 in
Heating Degree Days37.5 (Base 65)
Averaged from 36 records on February 24, 2013
WEATHER CONDITIONS BREAKOUT
WIND DIRECTION BREAKOUT
WEATHER BY HOUR - FEBRUARY 24, 2013
[ °C ]   °F
Local TimeTemperatureDewpointHumidityBarometerVisibilityWind DirectionWind SpeedGust SpeedPrecipitationEventsConditions
1:17 AM33.8 °F30.2 °F87 %29.81 in10.0 miNNW (340°)15.0 mph0.00 inOvercast
1:20 AM33.8 °F30.2 °F87 %29.81 in10.0 miNNW (340°)15.0 mph0.00 inOvercast
1:50 AM33.8 °F30.2 °F87 %29.81 in1.8 miNNW (340°)17.3 mph21.9 mph0.00 inSnowLight Snow
1:52 AM33.1 °F30.9 °F92 %29.87 in1.5 miNNW (340°)15.0 mph0.00 inSnowLight Snow
2:00 AM33.8 °F30.2 °F87 %29.82 in3.0 miNNW (340°)13.8 mph0.01 inSnowLight Snow
2:09 AM33.8 °F30.2 °F87 %29.82 in10.0 miNNW (340°)17.3 mph0.01 inRainLight Rain
2:23 AM33.8 °F30.2 °F87 %29.82 in10.0 miNNW (340°)15.0 mph0.01 inRainLight Rain
2:52 AM32.0 °F28.9 °F88 %29.88 in10.0 miNNW (340°)24.2 mph32.2 mph0.01 inOvercast
3:15 AM30.2 °F28.4 °F93 %29.84 in10.0 miNNW (330°)23.0 mphOvercast
3:52 AM30.9 °F27.0 °F85 %29.91 in10.0 miNNW (340°)19.6 mphOvercast
4:52 AM30.9 °F27.0 °F85 %29.95 in9.0 miNNW (340°)23.0 mph0.00 inSnowLight Snow
5:28 AM30.2 °F28.4 °F93 %29.90 in8.0 miNNW (340°)19.6 mph0.00 inSnowLight Snow
5:52 AM30.9 °F27.0 °F85 %29.98 in9.0 miNNW (340°)18.4 mph26.5 mph0.00 inSnowLight Snow
6:52 AM30.9 °F27.0 °F85 %30.01 in3.0 miNNW (340°)18.4 mph0.00 inSnowLight Snow
7:00 AM30.2 °F28.4 °F93 %29.93 in1.8 miNNW (340°)16.1 mph0.00 inSnowLight Snow
7:27 AM30.2 °F26.6 °F86 %29.94 in3.0 miNNW (340°)17.3 mph0.00 inSnowLight Snow
7:52 AM30.9 °F26.1 °F82 %30.04 in10.0 miNNW (330°)21.9 mph28.8 mph0.00 inOvercast
8:52 AM30.9 °F27.0 °F85 %30.06 in8.0 miNNW (340°)20.7 mph29.9 mph0.00 inSnowLight Snow
9:52 AM32.0 °F25.0 °F75 %30.07 in10.0 miNNW (340°)26.5 mph33.4 mph0.00 inOvercast
10:52 AM33.1 °F27.0 °F78 %30.08 in10.0 miNNW (340°)19.6 mph29.9 mphOvercast
11:52 AM33.1 °F25.0 °F72 %30.08 in10.0 miNNW (330°)28.8 mph38.0 mphMostly Cloudy
12:52 PM33.1 °F25.0 °F72 %30.08 in10.0 miNNW (330°)27.6 mph35.7 mphOvercast
1:52 PM34.0 °F25.0 °F70 %30.07 in10.0 miNNW (330°)24.2 mph34.5 mphOvercast
2:52 PM33.1 °F24.1 °F70 %30.09 in10.0 miNNW (330°)21.9 mph27.6 mphOvercast
3:08 PM33.8 °F24.8 °F70 %30.00 in10.0 miNNW (330°)20.7 mph29.9 mphOvercast
3:18 PM33.8 °F24.8 °F70 %30.00 in10.0 miNNW (330°)19.6 mph27.6 mphOvercast
3:44 PM33.8 °F24.8 °F70 %30.00 in10.0 miNNW (330°)20.7 mph27.6 mphOvercast
3:52 PM34.0 °F23.0 °F64 %30.09 in10.0 miNW (320°)23.0 mph29.9 mphOvercast
4:52 PM34.0 °F21.9 °F61 %30.11 in10.0 miNNW (330°)19.6 mph26.5 mphOvercast
5:52 PM32.0 °F21.0 °F64 %30.12 in10.0 miNW (320°)13.8 mphMostly Cloudy
6:52 PM28.9 °F19.9 °F69 %30.15 in10.0 miNW (320°)9.2 mphPartly Cloudy
7:52 PM24.1 °F18.0 °F77 %30.17 in10.0 miWNW (300°)5.8 mphClear
8:52 PM23.0 °F17.1 °F78 %30.17 in10.0 miWNW (300°)6.9 mphClear
9:52 PM23.0 °F17.1 °F78 %30.17 in10.0 miNW (320°)9.2 mphClear
10:52 PM21.0 °F15.1 °F78 %30.19 in10.0 miNorthClear
11:52 PM21.9 °F15.1 °F75 %30.17 in10.0 miNW (310°)8.1 mphClear
Hourly data recorded from KRAP, located miles away from Rapid City, South Dakota







STORIES FROM OUR PARTNERS